Weather History for Roseau, MN

Change the Weather History Date:

Tuesday, January 1, 2013

  Actual Average Record
Temperature  
Mean Temperature 2 °F -  
Max Temperature 19 °F 8 °F 37 °F (1964)
Min Temperature -16 °F -7 °F -42 °F (1974)
Degree Days  
Heating Degree Days 64    
Moisture  
Dew Point 0 °F    
Average Humidity 79    
Maximum Humidity 86    
Minimum Humidity 70    
Precipitation  
Precipitation 0.00 in - - ()
Sea Level Pressure  
Sea Level Pressure 29.97 in    
Wind  
Wind Speed 7 mph (SSW)    
Max Wind Speed 14 mph    
Max Gust Speed 18 mph    
Visibility 8 miles    
Events Snow    
Averages and records for this station are not official NWS values.
T = Trace of Precipitation, MM = Missing Value Source: NWS Daily Summary

Daily Weather History Graph

Daily Weather History Graph

Search for Another Location

Airport:

Trip Planner

Search our weather history database for the weather conditions in past years. The results will help you decide how hot, cold, wet, or windy it might be!

Date:

Astronomy

Jan. 01, 2013 Rise Set
Actual Time 8:16 AM CST 4:37 PM CST
Civil Twilight 7:39 AM CST 5:14 PM CST
Nautical Twilight 6:59 AM CST 5:54 PM CST
Astronomical Twilight 6:20 AM CST 6:32 PM CST
Moon 9:34 PM CST (1/1) 10:06 AM CST (1/1)
Length of Visible Light 9h 34m
Length of Day
8h 20m
Waning Gibbous, 83% of the Moon is Illuminated
Jan 1
Waning Gibbous
Jan 4
Last Quarter
Jan 11
New
Jan 18
First Quarter
Jan 26
Full

Hourly Weather History & Observations

Time (CST) Temp. Windchill Dew Point Humidity Pressure Visibility Wind Dir Wind Speed Gust Speed Precip Events Conditions
12:14 AM -11.2 °F -24.8 °F -18.4 °F 70% 30.16 in 10.0 mi SW 5.8 mph - N/A   Clear
12:34 AM -11.2 °F -24.8 °F -18.4 °F 70% 30.15 in 10.0 mi SW 5.8 mph - N/A   Clear
12:54 AM -11.2 °F -23.0 °F -16.6 °F 77% 30.15 in 10.0 mi SSW 4.6 mph - N/A   Clear
1:15 AM -9.4 °F -22.7 °F -14.8 °F 77% 30.15 in 10.0 mi SSW 5.8 mph - N/A   Clear
1:34 AM -11.2 °F -24.8 °F -16.6 °F 77% 30.14 in 10.0 mi SSW 5.8 mph - N/A   Clear
1:54 AM -13.0 °F -22.7 °F -20.2 °F 70% 30.14 in 10.0 mi SSW 3.5 mph - N/A   Clear
2:15 AM -11.2 °F - -18.4 °F 70% 30.15 in 10.0 mi Calm Calm - N/A   Clear
2:34 AM -9.4 °F - -16.6 °F 71% 30.14 in 10.0 mi Calm Calm - N/A   Clear
3:14 AM -16.6 °F -31.3 °F -22.0 °F 76% 30.14 in 10.0 mi South 5.8 mph - N/A   Clear
3:34 AM -14.8 °F -29.1 °F -20.2 °F 77% 30.13 in 10.0 mi South 5.8 mph - N/A   Clear
3:55 AM -13.0 °F -27.0 °F -20.2 °F 70% 30.13 in 10.0 mi South 5.8 mph - N/A   Clear
4:14 AM -14.8 °F -30.8 °F -22.0 °F 70% 30.11 in 10.0 mi South 6.9 mph - N/A   Clear
4:34 AM -11.2 °F -26.4 °F -18.4 °F 70% 30.10 in 10.0 mi SSW 6.9 mph - N/A   Clear
4:55 AM -9.4 °F -24.3 °F -16.6 °F 71% 30.10 in 10.0 mi SSW 6.9 mph - N/A   Clear
5:14 AM -14.8 °F -30.8 °F -20.2 °F 77% 30.09 in 10.0 mi South 6.9 mph - N/A   Clear
5:34 AM -13.0 °F -30.0 °F -18.4 °F 77% 30.08 in 10.0 mi SSW 8.1 mph - N/A   Clear
5:55 AM -9.4 °F -26.8 °F -16.6 °F 71% 30.07 in 10.0 mi SSW 9.2 mph - N/A   Clear
6:14 AM -5.8 °F -21.2 °F -11.2 °F 77% 30.06 in 10.0 mi SSW 8.1 mph - N/A   Clear
6:34 AM -5.8 °F -22.4 °F -11.2 °F 77% 30.05 in 2.5 mi SSW 9.2 mph - N/A Snow Light Snow
6:54 AM -4.0 °F -20.2 °F -9.4 °F 78% 30.05 in 3.0 mi SSW 9.2 mph - N/A Snow Light Snow
7:14 AM -4.0 °F -17.8 °F -9.4 °F 78% 30.05 in 5.0 mi SSW 6.9 mph - N/A Snow Light Snow
7:34 AM -5.8 °F -16.7 °F -11.2 °F 77% 30.05 in 1.8 mi SW 4.6 mph - N/A Snow Light Snow
7:54 AM -5.8 °F -16.7 °F -11.2 °F 77% 30.05 in 1.0 mi SW 4.6 mph - N/A Snow Light Snow
8:15 AM -4.0 °F -17.8 °F -9.4 °F 78% 30.03 in 5.0 mi SSW 6.9 mph - N/A Snow Light Snow
8:34 AM -2.2 °F -15.6 °F -9.4 °F 71% 30.03 in 10.0 mi SSW 6.9 mph - N/A   Overcast
8:54 AM -2.2 °F -14.2 °F -7.6 °F 78% 30.03 in 7.0 mi South 5.8 mph - N/A Snow Light Snow
9:14 AM -0.4 °F -10.4 °F -5.8 °F 78% 30.03 in 5.0 mi South 4.6 mph - N/A Snow Light Snow
9:34 AM 1.4 °F -8.3 °F -5.8 °F 72% 30.03 in 2.5 mi SSW 4.6 mph - N/A Snow Light Snow
9:54 AM 1.4 °F -9.9 °F -4.0 °F 78% 30.01 in 2.0 mi South 5.8 mph - N/A Snow Light Snow
10:14 AM 3.2 °F - -0.4 °F 85% 30.02 in 1.8 mi Calm Calm - N/A Snow Light Snow
10:34 AM 6.8 °F -2.0 °F 1.4 °F 79% 30.01 in 1.0 mi SSW 4.6 mph - N/A Snow Light Snow
10:54 AM 6.8 °F -0.1 °F 1.4 °F 79% 30.00 in 0.8 mi SSW 3.5 mph - N/A Snow Light Snow
11:14 AM 8.6 °F 2.0 °F 3.2 °F 79% 29.99 in 1.5 mi SSW 3.5 mph - N/A Snow Light Snow
11:34 AM 8.6 °F 0.1 °F 3.2 °F 79% 29.99 in 5.0 mi South 4.6 mph - N/A Snow Light Snow
11:54 AM 12.2 °F 2.9 °F 6.8 °F 79% 29.97 in 10.0 mi SW 5.8 mph - N/A   Mostly Cloudy
12:14 PM 12.2 °F 1.7 °F 6.8 °F 79% 29.96 in 10.0 mi SSW 6.9 mph - N/A   Scattered Clouds
12:34 PM 10.4 °F -2.4 °F 6.8 °F 85% 29.96 in 10.0 mi SSW 9.2 mph - N/A   Scattered Clouds
12:54 PM 10.4 °F -3.3 °F 6.8 °F 85% 29.94 in 7.0 mi SSW 10.4 mph - N/A   Clear
1:14 PM 12.2 °F -0.2 °F 6.8 °F 79% 29.93 in 7.0 mi SSW 9.2 mph - N/A   Clear
1:34 PM 12.2 °F 0.7 °F 8.6 °F 85% 29.93 in 10.0 mi SSW 8.1 mph - N/A   Clear
1:55 PM 14.0 °F 1.2 °F 8.6 °F 79% 29.92 in 7.0 mi SSW 10.4 mph - N/A   Clear
2:14 PM 14.0 °F 0.5 °F 8.6 °F 79% 29.91 in 10.0 mi SSW 11.5 mph - N/A   Clear
2:34 PM 14.0 °F -0.2 °F 8.6 °F 79% 29.90 in 10.0 mi SSW 12.7 mph - N/A   Clear
2:55 PM 12.2 °F -1.0 °F 8.6 °F 85% 29.90 in 10.0 mi South 10.4 mph - N/A   Clear
3:14 PM 12.2 °F -2.5 °F 8.6 °F 85% 29.89 in 10.0 mi South 12.7 mph - N/A   Clear
3:34 PM 12.2 °F -2.5 °F 6.8 °F 79% 29.88 in 10.0 mi South 12.7 mph - N/A   Clear
3:55 PM 12.2 °F -1.8 °F 6.8 °F 79% 29.88 in 10.0 mi SSW 11.5 mph - N/A   Clear
4:14 PM 12.2 °F -0.2 °F 6.8 °F 79% 29.89 in 10.0 mi South 9.2 mph - N/A   Clear
4:34 PM 12.2 °F -1.8 °F 6.8 °F 79% 29.89 in 10.0 mi SSW 11.5 mph - N/A   Clear
4:55 PM 12.2 °F -0.2 °F 8.6 °F 85% 29.89 in 10.0 mi SSW 9.2 mph - N/A   Clear
5:14 PM 12.2 °F 0.7 °F 8.6 °F 85% 29.89 in 10.0 mi SSW 8.1 mph - N/A Snow Light Snow
5:34 PM 12.2 °F -0.2 °F 8.6 °F 85% 29.89 in 10.0 mi SSW 9.2 mph - N/A   Scattered Clouds
5:55 PM 12.2 °F -1.0 °F 8.6 °F 85% 29.87 in 10.0 mi South 10.4 mph - N/A   Overcast
6:14 PM 14.0 °F 0.5 °F 8.6 °F 79% 29.86 in 10.0 mi South 11.5 mph - N/A   Overcast
6:35 PM 14.0 °F 0.5 °F 8.6 °F 79% 29.85 in 10.0 mi South 11.5 mph - N/A   Overcast
6:54 PM 14.0 °F 0.5 °F 10.4 °F 86% 29.85 in 10.0 mi SSW 11.5 mph - N/A   Overcast
7:14 PM 15.8 °F 2.7 °F 10.4 °F 79% 29.85 in 10.0 mi SSW 11.5 mph - N/A   Overcast
7:35 PM 15.8 °F 4.2 °F 10.4 °F 79% 29.84 in 10.0 mi SSW 9.2 mph - N/A   Overcast
7:54 PM 15.8 °F 2.7 °F 12.2 °F 86% 29.83 in 10.0 mi SSW 11.5 mph - N/A   Mostly Cloudy
8:14 PM 17.6 °F 5.0 °F 12.2 °F 79% 29.83 in 10.0 mi SSW 11.5 mph - N/A   Overcast
8:35 PM 17.6 °F 5.0 °F 12.2 °F 79% 29.82 in 10.0 mi SSW 11.5 mph - N/A   Mostly Cloudy
8:54 PM 19.4 °F 7.2 °F 14.0 °F 80% 29.81 in 10.0 mi SSW 11.5 mph - N/A   Scattered Clouds
9:14 PM 19.4 °F 6.6 °F 14.0 °F 80% 29.81 in 10.0 mi SSW 12.7 mph 18.4 mph N/A   Scattered Clouds
9:34 PM 19.4 °F 6.6 °F 14.0 °F 80% 29.80 in 10.0 mi SSW 12.7 mph 18.4 mph N/A   Mostly Cloudy
9:54 PM 19.4 °F 6.6 °F 14.0 °F 80% 29.79 in 10.0 mi SSW 12.7 mph - N/A   Overcast
10:14 PM 19.4 °F 6.0 °F 15.8 °F 86% 29.79 in 10.0 mi SSW 13.8 mph - N/A   Overcast
10:34 PM 19.4 °F 7.9 °F 15.8 °F 86% 29.79 in 5.0 mi SSW 10.4 mph - N/A Snow Light Snow
10:54 PM 19.4 °F 6.6 °F 15.8 °F 86% 29.79 in 3.0 mi SSW 12.7 mph - N/A Snow Light Snow
11:14 PM 19.4 °F 6.6 °F 15.8 °F 86% 29.78 in 2.5 mi SSW 12.7 mph - N/A Snow Light Snow
11:34 PM 19.4 °F 6.0 °F 15.8 °F 86% 29.78 in 10.0 mi SSW 13.8 mph - N/A Snow Light Snow
11:54 PM 19.4 °F 7.2 °F 15.8 °F 86% 29.78 in 10.0 mi SSW 11.5 mph - N/A   Scattered Clouds